Weather History for Hermiston, OR

Change the Weather History Date:

Friday, October 5, 2012

  Actual Average Record
Temperature  
Mean Temperature 46 °F -  
Max Temperature 64 °F 72 °F 87 °F (1958)
Min Temperature 27 °F 38 °F 27 °F (2012)
Degree Days  
Heating Degree Days 20    
Moisture  
Dew Point 23 °F    
Average Humidity 51    
Maximum Humidity 81    
Minimum Humidity 20    
Precipitation  
Precipitation 0.00 in - - ()
Sea Level Pressure  
Sea Level Pressure 30.31 in    
Wind  
Wind Speed 5 mph (SE)    
Max Wind Speed 12 mph    
Max Gust Speed -    
Visibility 10 miles    
Events      
Averages and records for this station are not official NWS values.
T = Trace of Precipitation, MM = Missing Value Source: NWS Daily Summary

Daily Weather History Graph

Daily Weather History Graph

Search for Another Location

Airport:

Trip Planner

Search our weather history database for the weather conditions in past years. The results will help you decide how hot, cold, wet, or windy it might be!

Date:

Astronomy

Oct. 05, 2012 Rise Set
Actual Time 7:01 AM PDT 6:28 PM PDT
Civil Twilight 6:31 AM PDT 6:58 PM PDT
Nautical Twilight 5:57 AM PDT 7:32 PM PDT
Astronomical Twilight 5:22 AM PDT 8:07 PM PDT
Moon 9:41 PM PDT (10/5) 12:27 PM PDT (10/5)
Length of Visible Light 12h 26m
Length of Day
11h 27m
Waning Gibbous, 73% of the Moon is Illuminated
Oct 5
Waning Gibbous
Oct 8
Last Quarter
Oct 15
New
Oct 21
First Quarter
Oct 29
Full

Hourly Weather History & Observations

Time (PDT) Temp. Windchill Dew Point Humidity Pressure Visibility Wind Dir Wind Speed Gust Speed Precip Events Conditions
12:53 AM 35.1 °F 30.1 °F 23.0 °F 61% 30.29 in 9.0 mi South 5.8 mph - N/A   Clear
1:53 AM 30.0 °F 25.2 °F 21.0 °F 69% 30.31 in 9.0 mi South 4.6 mph - N/A   Clear
2:53 AM 28.9 °F 25.2 °F 21.0 °F 72% 30.31 in 10.0 mi South 3.5 mph - N/A   Clear
3:53 AM 27.0 °F - 21.0 °F 78% 30.32 in 10.0 mi Calm Calm - N/A   Clear
4:53 AM 28.0 °F 22.8 °F 23.0 °F 81% 30.31 in 10.0 mi East 4.6 mph - N/A   Clear
5:53 AM 27.0 °F 21.6 °F 21.0 °F 78% 30.31 in 10.0 mi SSE 4.6 mph - N/A   Clear
6:53 AM 27.0 °F 20.5 °F 19.9 °F 75% 30.33 in 6.0 mi ESE 5.8 mph - N/A   Haze
7:53 AM 32.0 °F 28.7 °F 21.0 °F 64% 30.35 in 10.0 mi ESE 3.5 mph - N/A   Clear
8:53 AM 42.1 °F - 21.9 °F 45% 30.36 in 8.0 mi Calm Calm - N/A   Clear
10:53 AM 50.0 °F - 28.0 °F 43% 30.38 in 10.0 mi West 3.5 mph - N/A   Clear
11:53 AM 54.0 °F - 27.0 °F 35% 30.37 in 10.0 mi Variable 3.5 mph - N/A   Clear
12:53 PM 57.9 °F - 28.0 °F 32% 30.35 in 10.0 mi North 4.6 mph - N/A   Clear
1:53 PM 62.1 °F - 28.0 °F 28% 30.32 in 9.0 mi NE 11.5 mph - N/A   Clear
2:53 PM 64.0 °F - 25.0 °F 23% 30.30 in 10.0 mi NNE 10.4 mph - N/A   Clear
3:53 PM 64.9 °F - 23.0 °F 20% 30.29 in 10.0 mi ENE 9.2 mph - N/A   Clear
4:53 PM 64.0 °F - 21.9 °F 20% 30.27 in 10.0 mi East 5.8 mph - N/A   Clear
6:53 PM 50.0 °F - 25.0 °F 38% 30.27 in 9.0 mi Calm Calm - N/A   Clear
7:53 PM 43.0 °F - 21.0 °F 42% 30.27 in 10.0 mi Calm Calm - N/A   Clear
8:53 PM 42.1 °F 38.4 °F 25.0 °F 51% 30.27 in 10.0 mi South 5.8 mph - N/A   Clear
9:53 PM 37.0 °F 32.4 °F 24.1 °F 59% 30.28 in 8.0 mi South 5.8 mph - N/A   Clear
10:53 PM 37.0 °F 31.6 °F 24.1 °F 59% 30.29 in 10.0 mi South 6.9 mph - N/A   Clear
11:53 PM 35.1 °F 32.2 °F 21.9 °F 59% 30.29 in 10.0 mi SSE 3.5 mph - N/A   Clear